Easton, MD

8:23 AM EST on December 16, 2017 (GMT -0500)
Easton / Newnam

Weather History for KESN - April, 2014

Change the Weather History Date:

Friday, April 11, 2014

  Actual Average Record
Temperature  
Mean Temperature 68 °F -  
Max Temperature 80 °F 63 °F 84 °F (2013)
Min Temperature 57 °F 38 °F 27 °F (1960)
Cooling Degree Days 4    
Growing Degree Days 18 (Base 50)    
Moisture  
Dew Point 47 °F    
Average Humidity 54    
Maximum Humidity 77    
Minimum Humidity 30    
Precipitation  
Precipitation 0.00 in - - ()
Sea Level Pressure  
Sea Level Pressure 30.07 in    
Wind  
Wind Speed 12 mph (SW)    
Max Wind Speed 16 mph    
Max Gust Speed 21 mph    
Visibility 10 miles    
Events      
Averages and records for this station are not official NWS values.
T = Trace of Precipitation, MM = Missing Value Source: NWS Daily Summary

Daily Weather History Graph

Daily Weather History Graph

Search for Another Location

Airport or City:

Trip Planner

Search our weather history database for the weather conditions in past years. The results will help you decide how hot, cold, wet, or windy it might be!

Date:

Astronomy

Apr. 11, 2014 Rise Set
Actual Time 6:33 AM EDT 7:37 PM EDT
Civil Twilight 6:06 AM EDT 8:04 PM EDT
Nautical Twilight 5:34 AM EDT 8:37 PM EDT
Astronomical Twilight 5:00 AM EDT 9:11 PM EDT
Moon 4:17 PM EDT (4/11) 4:25 AM EDT (4/11)
Length of Visible Light 13h 58m
Length of Day
13h 03m
Waxing Gibbous, 87% of the Moon is Illuminated
Apr 11
Waxing Gibbous
Apr 15
Full
Apr 22
Last Quarter
Apr 29
New
May 6
First Quarter

Hourly Weather History & Observations

Time (EDT) Temp. Dew Point Humidity Pressure Visibility Wind Dir Wind Speed Gust Speed Precip Events Conditions
12:08 AM 59.7 °F 45.3 °F 59% 30.10 in 10.0 mi SSW 12.7 mph - N/A   Clear
12:28 AM 59.5 °F 45.5 °F 60% 30.10 in 10.0 mi SW 12.7 mph - N/A   Clear
12:48 AM 60.4 °F 45.0 °F 57% 30.10 in 10.0 mi SW 15.0 mph - N/A   Clear
1:08 AM 61.2 °F 44.8 °F 55% 30.09 in 10.0 mi SSW 13.8 mph - N/A   Clear
1:28 AM 61.5 °F 44.8 °F 54% 30.08 in 10.0 mi SSW 16.1 mph - N/A   Clear
1:49 AM 61.0 °F 45.0 °F 56% 30.08 in 10.0 mi SW 15.0 mph - N/A   Clear
2:09 AM 60.6 °F 44.8 °F 56% 30.08 in 10.0 mi SW 13.8 mph 18.4 mph N/A   Clear
2:29 AM 61.0 °F 44.1 °F 54% 30.06 in 10.0 mi SW 13.8 mph 19.6 mph N/A   Clear
2:49 AM 61.0 °F 43.9 °F 53% 30.06 in 10.0 mi SW 12.7 mph - N/A   Clear
3:09 AM 60.8 °F 43.9 °F 54% 30.06 in 10.0 mi SW 12.7 mph - N/A   Clear
3:29 AM 60.3 °F 44.6 °F 56% 30.05 in 10.0 mi SSW 13.8 mph 18.4 mph N/A   Clear
3:49 AM 59.9 °F 44.8 °F 57% 30.05 in 10.0 mi SW 12.7 mph 18.4 mph N/A   Clear
4:09 AM 59.5 °F 45.0 °F 59% 30.05 in 10.0 mi SW 11.5 mph 17.3 mph N/A   Clear
4:29 AM 59.2 °F 45.1 °F 60% 30.05 in 10.0 mi SW 10.4 mph 17.3 mph N/A   Clear
4:49 AM 59.0 °F 45.3 °F 60% 30.06 in 10.0 mi SW 11.5 mph - N/A   Clear
5:09 AM 59.0 °F 45.5 °F 61% 30.07 in 10.0 mi SW 10.4 mph - N/A   Clear
5:29 AM 58.8 °F 45.5 °F 61% 30.07 in 10.0 mi SW 10.4 mph - N/A   Clear
5:49 AM 58.6 °F 45.5 °F 62% 30.08 in 10.0 mi SW 8.1 mph - N/A   Clear
5:50 AM 57.2 °F 44.6 °F 63% 30.08 in 10.0 mi SSW 9.2 mph - N/A   Scattered Clouds
6:24 AM 58.1 °F 45.1 °F 62% 30.08 in 10.0 mi SW 9.2 mph - N/A   Clear
6:50 AM 57.2 °F 44.6 °F 63% 30.10 in 10.0 mi SSW 9.2 mph - N/A   Scattered Clouds
7:50 AM 62.6 °F 46.4 °F 55% 30.11 in 10.0 mi SW 9.2 mph - N/A   Scattered Clouds
8:50 AM 62.6 °F 44.6 °F 52% 30.12 in 10.0 mi SW 10.4 mph - N/A   Mostly Cloudy
9:50 AM 66.2 °F 46.4 °F 49% 30.12 in 10.0 mi SW 13.8 mph - N/A   Mostly Cloudy
10:53 AM 66.2 °F 44.6 °F 46% 30.12 in 10.0 mi SW 12.7 mph 17.3 mph N/A   Mostly Cloudy
11:50 AM 71.6 °F 46.4 °F 41% 30.10 in 10.0 mi SW 10.4 mph - N/A   Mostly Cloudy
12:45 PM 73.4 °F 46.4 °F 38% 30.07 in 10.0 mi SW 10.4 mph - N/A   Mostly Cloudy
1:47 PM 77.0 °F 46.4 °F 34% 30.03 in 10.0 mi SW 10.4 mph - N/A   Mostly Cloudy
2:50 PM 78.8 °F 46.4 °F 32% 30.02 in 10.0 mi SW 12.7 mph 18.4 mph N/A   Mostly Cloudy
3:50 PM 78.8 °F 48.2 °F 34% 30.01 in 10.0 mi SW 12.7 mph 18.4 mph N/A   Mostly Cloudy
4:47 PM 80.6 °F 46.4 °F 30% 29.98 in 10.0 mi SW 15.0 mph 19.6 mph N/A   Scattered Clouds
5:52 PM 78.8 °F 46.4 °F 32% 29.97 in 10.0 mi South 15.0 mph 19.6 mph N/A   Mostly Cloudy
6:52 PM 77.0 °F 48.2 °F 36% 29.98 in 10.0 mi SSW 10.4 mph - N/A   Mostly Cloudy
7:54 PM 71.6 °F 48.2 °F 43% 30.00 in 10.0 mi South 8.1 mph - N/A   Scattered Clouds
8:30 PM 71.6 °F 48.2 °F 43% 30.05 in 10.0 mi NNE 11.5 mph 16.1 mph N/A   Scattered Clouds
8:48 PM 66.2 °F 51.8 °F 60% 30.07 in 10.0 mi NNE 11.5 mph 20.7 mph N/A   Clear
10:31 PM 63.3 °F 53.2 °F 70% 30.07 in 10.0 mi ENE 5.8 mph - N/A   Clear
10:51 PM 63.5 °F 53.6 °F 70% 30.08 in 10.0 mi Calm Calm - N/A   Clear
11:11 PM 61.3 °F 54.0 °F 77% 30.09 in 10.0 mi Calm Calm - N/A   Clear
11:31 PM 61.3 °F 53.6 °F 76% 30.08 in 10.0 mi SE 3.5 mph - N/A   Clear
11:51 PM 61.0 °F 53.6 °F 77% 30.08 in 10.0 mi Calm Calm - N/A   Scattered Clouds